Location: Twillingate Astronomical Observatory
(49.6173°N, 54.7580°W)
Time: 21:11:30
(UTC-02:-30)

Amateur Radio Satellites - All Passes

Search period start: 02 June 2015 20:41
Search period end: 03 June 2015 20:41
Location: Twillingate Astronomical Observatory, 49.6173°N, 54.7580°W

Satellite Date Start Highest point End Downlink Frequencies (MHz)
Time Altitude Azimuth
M-CUBED/EXP-1 PRIME 02 Jun 20:50:44 20:53:53 41° 105° (ESE) 20:57:07 437.505
DELFI C3 02 Jun 20:50:46 20:53:31 18° 63° (ENE) 20:56:22 145.870
AUBIESAT-1 02 Jun 20:51:40 20:54:46 36° 104° (ESE) 20:57:56 437.475
CANX-2 02 Jun 20:52:29 20:56:44 90° 254° (WSW) 21:01:00 2200.000
FUNcube-1 02 Jun 20:53:17 20:56:20 18° 61° (ENE) 20:59:29 145.935
CUTE 1.7 + AOD 2 02 Jun 20:54:51 20:59:06 87° 79° (E) 21:03:22 437.475
PRISM 02 Jun 20:55:14 20:59:12 43° 291° (WNW) 21:03:09 437.425
UWE-3 02 Jun 21:02:37 21:06:30 27° 65° (ENE) 21:10:24 435.000/436.395/437.385
CUSAT 1 02 Jun 21:05:04 21:06:42 11° 38° (NE) 21:08:33 437.405
SEEDS 02 Jun 21:05:35 21:09:49 87° 259° (W) 21:14:02 437.485
COMPASS 1 02 Jun 21:06:41 21:10:51 79° 75° (ENE) 21:15:02 437.405
AIST 1 02 Jun 21:07:51 21:11:55 41° 287° (WNW) 21:16:03
CUBESAT XI-V 02 Jun 21:09:40 21:13:03 19° 300° (WNW) 21:16:20 437.345
AAUSAT CUBESAT 2 02 Jun 21:12:19 21:16:27 79° 75° (ENE) 21:20:38 437.432
GOMX 1 02 Jun 21:21:37 21:26:42 41° 265° (W) 21:31:55 467.674
DANDE 02 Jun 21:23:13 21:26:42 14° 40° (NE) 21:30:10 436.750
UKube-1 02 Jun 21:23:21 21:26:10 18° 60° (ENE) 21:29:08 .
AISAT 02 Jun 21:26:12 21:27:56 12° 55° (NE) 21:29:50 437.250
Oscar 11 02 Jun 21:30:46 21:35:02 60° 72° (ENE) 21:39:18 145.826/435.025
ZACube-1 02 Jun 21:35:38 21:39:56 42° 69° (ENE) 21:44:12 437.345
DX 1 02 Jun 21:42:22 21:46:00 27° 64° (ENE) 21:49:45 434.975-435.025
DOVE 4 02 Jun 21:46:12 21:51:05 36° 266° (W) 21:55:59 437.250
ISS 02 Jun 21:46:59 21:49:48 28° 146° (SE) 21:52:40 145.825
AIST 2 02 Jun 21:47:01 21:48:13 11° 352° (N) 21:49:25 435.215
BEESAT 3 02 Jun 21:49:27 21:50:01 10° 8° (N) 21:50:38 437.485
BRITE-PL 02 Jun 22:00:06 22:03:29 16° 277° (W) 22:06:42 437.365/2234.400
CUBEBUG 1 02 Jun 22:03:52 22:06:06 14° 58° (ENE) 22:08:30 437.445
HUMSAT D 02 Jun 22:04:13 22:08:11 38° 69° (ENE) 22:12:10 437.325/437.525
Cosmos 2491 02 Jun 22:05:37 22:11:49 20° 311° (NW) 22:17:42 435.465 / 435.565
CINEMA 3 02 Jun 22:05:58 22:10:45 41° 263° (W) 22:15:29 145.822/145.860
CUBEBUG 2 02 Jun 22:06:43 22:11:28 69° 259° (W) 22:16:09 437.445
Cosmos 2504 02 Jun 22:07:44 22:14:16 39° 272° (W) 22:20:46 435.465 / 435.565
STRAND 1 02 Jun 22:13:57 22:17:12 17° 305° (NW) 22:20:17 437.568
HO-68 02 Jun 22:22:29 22:28:19 25° 271° (W) 22:33:59 435.675
DELFI C3 02 Jun 22:24:23 22:28:19 51° 260° (W) 22:32:15 145.870
VELOX 1 02 Jun 22:25:23 22:29:26 36° 67° (ENE) 22:33:35 145.980
GONETS M04 02 Jun 22:26:13 22:33:25 28° 57° (ENE) 22:40:44
M-CUBED/EXP-1 PRIME 02 Jun 22:26:21 22:28:34 17° 303° (WNW) 22:30:43 437.505
UNISAT 6 02 Jun 22:26:58 22:27:19 10° 84° (E) 22:27:56 437.425
AUBIESAT-1 02 Jun 22:27:01 22:29:25 18° 301° (WNW) 22:31:46 437.475
FUNcube-1 02 Jun 22:27:44 22:32:16 66° 259° (WSW) 22:36:46 145.935
CANX-2 02 Jun 22:32:18 22:33:24 11° 276° (W) 22:34:16 2200.000
CUTE 1.7 + AOD 2 02 Jun 22:34:21 22:35:43 11° 275° (W) 22:36:52 437.475
UWE-3 02 Jun 22:38:26 22:42:53 42° 263° (W) 22:47:15 435.000/436.395/437.385
CUSAT 1 02 Jun 22:45:20 22:51:52 43° 65° (ENE) 22:56:57 437.405
COMPASS 1 02 Jun 22:45:25 22:47:10 12° 274° (W) 22:48:42 437.405
SEEDS 02 Jun 22:45:49 22:46:21 10° 276° (W) 22:46:39 437.485
BEESAT 2 02 Jun 22:47:57 22:50:09 14° 20° (NNE) 22:52:22 435.950
50 SAT 02 Jun 22:49:34 22:53:30 63° 73° (ENE) 22:57:25 437.505
AAUSAT CUBESAT 2 02 Jun 22:50:58 22:52:42 12° 274° (W) 22:54:15 437.432
UKube-1 02 Jun 22:57:35 23:01:53 65° 258° (WSW) 23:06:14 .
ESTCUBE 1 02 Jun 22:57:51 23:02:07 46° 69° (ENE) 23:06:27 437.505/2401.250
AISAT 02 Jun 22:59:20 23:03:49 77° 74° (ENE) 23:08:21 437.250
NANOSAT C BR1 02 Jun 23:00:53 23:01:33 10° 84° (E) 23:02:28 145.865
DANDE 02 Jun 23:05:02 23:12:22 50° 67° (ENE) 23:18:04 436.750
ANTELSAT 02 Jun 23:07:54 23:11:33 26° 93° (E) 23:15:12 437.575/2403.000
Oscar 11 02 Jun 23:08:48 23:11:39 17° 271° (W) 23:14:23 145.826/435.025
ZACube-1 02 Jun 23:12:37 23:16:27 25° 267° (W) 23:20:12 437.345
QB50P2 02 Jun 23:13:13 23:15:36 15° 88° (E) 23:18:08 145.880/145.840
DX 1 02 Jun 23:18:01 23:22:08 39° 262° (W) 23:26:16 434.975-435.025
DUCHIFAT 1 02 Jun 23:18:54 23:21:29 16° 88° (E) 23:24:13 145.980
ISS 02 Jun 23:22:46 23:26:01 80° 342° (NNW) 23:29:17 145.825
POPSAT HIP 1 02 Jun 23:23:06 23:26:01 18° 89° (E) 23:29:02 437.405
O/OREOS (USA 219) 02 Jun 23:24:13 23:28:17 34° 53° (NE) 23:32:24 437.305
BEESAT 3 02 Jun 23:26:15 23:29:27 22° 31° (NNE) 23:32:42 437.485
AIST 2 02 Jun 23:26:32 23:28:35 13° 17° (NNE) 23:30:41 435.215
TIGRISAT 02 Jun 23:36:46 23:40:59 48° 99° (E) 23:45:08 435.000
CUBEBUG 1 02 Jun 23:37:28 23:41:52 87° 256° (WSW) 23:46:20 437.445
HUMSAT D 02 Jun 23:40:27 23:44:03 25° 267° (W) 23:47:35 437.325/437.525
TISAT 1 02 Jun 23:41:06 23:44:36 26° 65° (ENE) 23:48:12 437.305
SPROUT 02 Jun 23:47:12 23:51:11 38° 68° (ENE) 23:55:15 437.525
PCSat 02 Jun 23:58:23 00:03:38 55° 119° (ESE) 00:08:58 145.827
UNISAT 6 03 Jun 00:00:34 00:04:57 85° 105° (ESE) 00:09:14 437.425
VELOX 1 03 Jun 00:02:10 00:06:04 29° 266° (W) 00:09:59 145.980
QB50P1 03 Jun 00:05:29 00:09:37 46° 98° (E) 00:13:44 145.935-145.965
POLYITAN 1 03 Jun 00:11:46 00:15:59 54° 100° (E) 00:20:09 437.675
Cosmos 2499 03 Jun 00:20:05 00:25:26 23° 59° (ENE) 00:31:02 435.465 / 435.565
GONETS M04 03 Jun 00:22:39 00:31:31 83° 261° (W) 00:40:14
BEESAT 2 03 Jun 00:25:17 00:29:15 43° 42° (NE) 00:33:11 435.950
50 SAT 03 Jun 00:26:30 00:28:40 14° 272° (W) 00:30:40 437.505
CUSAT 1 03 Jun 00:28:23 00:34:25 35° 273° (W) 00:39:04 437.405
VERMONT LUNAR 03 Jun 00:31:23 00:33:18 15° 170° (S) 00:35:13 437.305
NANOSAT C BR1 03 Jun 00:33:51 00:38:10 87° 97° (E) 00:42:25 145.865
ESTCUBE 1 03 Jun 00:35:36 00:39:14 23° 268° (W) 00:42:48 437.505/2401.250
AISAT 03 Jun 00:38:34 00:41:02 14° 273° (W) 00:43:19 437.250
BUGSAT 1 03 Jun 00:41:45 00:46:03 74° 103° (ESE) 00:50:16 437.445
ANTELSAT 03 Jun 00:44:26 00:48:28 37° 292° (WNW) 00:52:24 437.575/2403.000
QB50P2 03 Jun 00:47:45 00:52:01 66° 287° (WNW) 00:56:13 145.880/145.840
DANDE 03 Jun 00:48:44 00:55:20 36° 274° (W) 01:00:29 436.750
DUCHIFAT 1 03 Jun 00:53:32 00:57:46 61° 288° (WNW) 01:01:57 145.980
SO-50 03 Jun 00:55:52 00:58:08 14° 110° (ESE) 01:00:39 436.795
PHONESAT 2.4 03 Jun 00:56:37 00:57:58 12° 161° (SSE) 00:59:22 2401.200-2431.200
ITUPSAT 1 03 Jun 00:57:49 01:01:54 30° 64° (ENE) 01:06:04 437.325
POPSAT HIP 1 03 Jun 00:58:04 01:02:17 54° 289° (WNW) 01:06:25 437.405
ISS 03 Jun 00:59:23 01:02:36 59° 5° (N) 01:05:51 145.825
BEESAT 03 Jun 01:00:23 01:04:33 32° 65° (ENE) 01:08:47 436.000
O/OREOS (USA 219) 03 Jun 01:03:40 01:07:44 34° 252° (WSW) 01:11:45 437.305
BEESAT 3 03 Jun 01:03:48 01:07:55 79° 234° (SW) 01:11:58 437.485
AIST 2 03 Jun 01:04:24 01:08:22 36° 40° (NE) 01:12:16 435.215
SWISSCUBE 03 Jun 01:09:50 01:14:16 40° 67° (ENE) 01:18:45 437.505
TIGRISAT 03 Jun 01:14:07 01:17:29 22° 298° (WNW) 01:20:43 435.000
TISAT 1 03 Jun 01:16:13 01:20:14 39° 263° (W) 01:24:17 437.305
CUBEBUG 1 03 Jun 01:17:41 01:19:02 11° 276° (W) 01:20:08 437.445
SPROUT 03 Jun 01:23:41 01:27:24 26° 267° (W) 01:31:04 437.525
UNISAT 6 03 Jun 01:38:52 01:41:09 14° 303° (WNW) 01:43:16 437.425
QB50P1 03 Jun 01:41:53 01:45:15 22° 297° (WNW) 01:48:31 145.935-145.965
PCSat 03 Jun 01:42:22 01:47:20 35° 320° (NW) 01:52:18 145.827
POLYITAN 1 03 Jun 01:48:25 01:51:34 20° 298° (WNW) 01:54:36 437.675
Oscar 19 03 Jun 02:01:51 02:06:22 31° 94° (E) 02:10:55 437.125/150
BEESAT 2 03 Jun 02:03:38 02:07:12 28° 242° (WSW) 02:10:40 435.950
VERMONT LUNAR 03 Jun 02:07:43 02:09:46 16° 187° (S) 02:11:48 437.305
NANOSAT C BR1 03 Jun 02:11:16 02:13:25 13° 302° (WNW) 02:15:24 145.865
Cosmos 2499 03 Jun 02:12:29 02:19:34 81° 262° (W) 02:26:49 435.465 / 435.565
KKS-1 03 Jun 02:13:29 02:17:24 31° 65° (ENE) 02:21:23 437.445
Gurwin Techsat 1B 03 Jun 02:17:43 02:20:18 14° 84° (E) 02:23:08 435.225
BUGSAT 1 03 Jun 02:18:26 02:21:00 15° 301° (WNW) 02:23:27 437.445
GONETS M04 03 Jun 02:21:01 02:27:09 21° 284° (WNW) 02:32:52
PHONESAT 2.4 03 Jun 02:32:48 02:35:19 18° 178° (S) 02:37:49 2401.200-2431.200
SO-50 03 Jun 02:33:12 02:37:58 81° 128° (SE) 02:42:53 436.795
ITAMSAT 1 03 Jun 02:33:33 02:37:11 19° 89° (E) 02:40:58 435.822/435.867
ITUPSAT 1 03 Jun 02:35:12 02:39:42 40° 263° (W) 02:44:12 437.325
ISS 03 Jun 02:35:51 02:39:05 63° 204° (SSW) 02:42:19 145.825
BEESAT 03 Jun 02:37:54 02:42:21 37° 263° (W) 02:46:46 436.000
AIST 2 03 Jun 02:43:02 02:46:58 37° 240° (WSW) 02:50:49 435.215
BEESAT 3 03 Jun 02:44:21 02:45:14 10° 250° (WSW) 02:45:54 437.485
SWISSCUBE 03 Jun 02:48:07 02:52:16 29° 266° (W) 02:56:23 437.505
STARS 03 Jun 02:58:01 03:02:20 51° 70° (ENE) 03:06:41 437.465
MOZHAYETS 4 03 Jun 03:04:39 03:06:09 12° 55° (NE) 03:07:50
PCSat 03 Jun 03:29:26 03:32:26 15° 345° (NNW) 03:35:22 145.827
Oscar 19 03 Jun 03:41:00 03:45:53 43° 293° (WNW) 03:50:42 437.125/150
JAS-2 03 Jun 03:46:27 03:49:44 17° 88° (E) 03:53:18 435.910
KKS-1 03 Jun 03:49:50 03:53:59 35° 264° (W) 03:58:07 437.445
Gurwin Techsat 1B 03 Jun 03:55:50 04:01:12 86° 103° (ESE) 04:06:32 435.225
Cosmos 2499 03 Jun 04:07:30 04:11:42 16° 282° (WNW) 04:15:37 435.465 / 435.565
PHONESAT 2.4 03 Jun 04:10:43 04:12:42 14° 194° (SSW) 04:14:39 2401.200-2431.200
ITAMSAT 1 03 Jun 04:12:04 04:17:17 70° 289° (WNW) 04:22:30 435.822/435.867
Cosmos 2491 03 Jun 04:12:51 04:19:09 22° 52° (NE) 04:25:43 435.465 / 435.565
ISS 03 Jun 04:13:09 04:15:02 14° 221° (SW) 04:16:50 145.825
SO-50 03 Jun 04:14:59 04:19:05 26° 330° (NNW) 04:23:15 436.795
AO-7 03 Jun 04:19:19 04:26:26 31° 92° (E) 04:33:43 29.400- 29.500
HORYU 2 03 Jun 04:30:42 04:34:46 35° 96° (E) 04:38:51 437.375
STARS 03 Jun 04:35:42 04:39:06 21° 269° (W) 04:42:25 437.465
MOZHAYETS 4 03 Jun 04:38:06 04:42:38 72° 74° (ENE) 04:47:12
CUBESAT XI-V 03 Jun 05:03:51 05:06:36 16° 58° (ENE) 05:09:32 437.345
YUBILEINY 03 Jun 05:12:21 05:15:40 13° 70° (ENE) 05:19:32 435.215
PCSat 03 Jun 05:15:37 05:18:12 13° 11° (N) 05:20:50 145.827
JAS-2 03 Jun 05:30:22 05:35:34 74° 288° (WNW) 05:41:01 435.910
AIST 1 03 Jun 05:35:03 05:35:51 11° 58° (ENE) 05:36:53
Gurwin Techsat 1B 03 Jun 05:36:57 05:40:35 19° 304° (WNW) 05:44:04 435.225
ITAMSAT 1 03 Jun 05:53:18 05:55:59 14° 307° (NW) 05:58:28 435.822/435.867
SO-50 03 Jun 05:58:30 06:01:14 15° 354° (N) 06:03:59 436.795
RS-15 03 Jun 06:06:53 06:09:08 11° 93° (E) 06:12:23 29.354- 29.394
HORYU 2 03 Jun 06:07:29 06:11:22 30° 295° (WNW) 06:15:11 437.375
Cubesat XI-IV 03 Jun 06:07:49 06:10:21 14° 84° (E) 06:13:09 437.490
Cosmos 2491 03 Jun 06:08:58 06:17:53 77° 78° (ENE) 06:26:40 435.465 / 435.565
M-CUBED/EXP-1 PRIME 03 Jun 06:10:00 06:12:15 16° 57° (ENE) 06:14:29 437.505
AUBIESAT-1 03 Jun 06:10:49 06:12:44 14° 56° (NE) 06:14:42 437.475
AO-7 03 Jun 06:11:41 06:20:02 73° 294° (WNW) 06:28:22 29.400- 29.500
PRISM 03 Jun 06:14:31 06:18:03 29° 66° (ENE) 06:21:39 437.425
STRAND 1 03 Jun 06:15:24 06:19:55 33° 64° (ENE) 06:24:31 437.568
MOZHAYETS 4 03 Jun 06:17:43 06:20:27 15° 273° (W) 06:23:02
CUBESAT XI-V 03 Jun 06:38:52 06:43:30 80° 258° (WSW) 06:48:12 437.345
PCSat 03 Jun 06:58:50 07:03:29 28° 36° (NE) 07:08:11 145.827
YUBILEINY 03 Jun 07:02:16 07:10:45 59° 92° (E) 07:19:16 435.215
AIST 1 03 Jun 07:09:59 07:14:25 76° 78° (ENE) 07:18:50
JAS-2 03 Jun 07:17:27 07:19:59 13° 307° (NW) 07:22:20 435.910
CUTE-I 03 Jun 07:22:55 07:28:13 55° 100° (E) 07:33:30 437.470
SO-50 03 Jun 07:40:13 07:43:37 18° 18° (NNE) 07:47:04 436.795
M-CUBED/EXP-1 PRIME 03 Jun 07:43:01 07:46:51 58° 252° (WSW) 07:50:24 437.505
AUBIESAT-1 03 Jun 07:43:25 07:47:13 66° 252° (WSW) 07:50:47 437.475
Cubesat XI-IV 03 Jun 07:45:59 07:51:24 83° 104° (ESE) 07:56:49 437.490
PRISM 03 Jun 07:49:47 07:53:28 31° 264° (W) 07:57:09 437.425
STRAND 1 03 Jun 07:54:16 07:59:04 40° 263° (W) 08:03:53 437.568
AO-7 03 Jun 08:05:24 08:11:40 24° 316° (NW) 08:17:44 29.400- 29.500
Cosmos 2491 03 Jun 08:06:46 08:13:58 28° 280° (W) 08:20:55 435.465 / 435.565
RS-15 03 Jun 08:08:35 08:18:52 52° 115° (ESE) 08:29:34 29.354- 29.394
BRITE-PL 03 Jun 08:19:59 08:24:33 26° 89° (E) 08:28:58 437.365/2234.400
CUBESAT XI-V 03 Jun 08:20:40 08:21:51 11° 277° (W) 08:22:46 437.345
CANX-2 03 Jun 08:35:24 08:36:53 12° 85° (E) 08:38:33 2200.000
CUTE 1.7 + AOD 2 03 Jun 08:37:53 08:39:08 11° 85° (E) 08:40:35 437.475
PCSat 03 Jun 08:42:01 08:47:28 74° 237° (WSW) 08:52:52 145.827
SEEDS 03 Jun 08:47:33 08:48:59 12° 85° (E) 08:50:38 437.485
AIST 1 03 Jun 08:49:25 08:51:31 13° 277° (W) 08:53:26
Cosmos 2504 03 Jun 08:57:58 09:04:54 35° 87° (E) 09:11:36 435.465 / 435.565
YUBILEINY 03 Jun 09:00:00 09:08:05 39° 295° (WNW) 09:16:03 435.215
CUTE-I 03 Jun 09:03:32 09:08:02 27° 299° (WNW) 09:12:28 437.470
TIGRISAT 03 Jun 09:06:11 09:07:50 12° 56° (NE) 09:09:40 435.000
GOMX 1 03 Jun 09:19:13 09:24:23 51° 98° (E) 09:29:12 467.674
SO-50 03 Jun 09:20:30 09:25:20 48° 41° (NE) 09:30:08 436.795
Cubesat XI-IV 03 Jun 09:27:09 09:30:56 19° 304° (WNW) 09:34:35 437.490
UNISAT 6 03 Jun 09:28:30 09:31:39 19° 61° (ENE) 09:34:53 437.425
POLYITAN 1 03 Jun 09:36:43 09:37:47 11° 56° (NE) 09:39:01 437.675
DOVE 4 03 Jun 09:40:54 09:45:49 52° 98° (E) 09:50:26 437.250
HO-68 03 Jun 09:43:06 09:50:07 54° 100° (E) 09:57:05 435.675
CUBEBUG 2 03 Jun 09:54:39 09:57:40 18° 89° (E) 10:00:43 437.445
NANOSAT C BR1 03 Jun 09:56:43 09:59:15 16° 60° (ENE) 10:01:57 145.865
CINEMA 3 03 Jun 09:56:48 10:01:06 37° 95° (E) 10:05:12 145.822/145.860
BRITE-PL 03 Jun 09:57:57 10:03:27 56° 290° (WNW) 10:08:36 437.365/2234.400
DELFI C3 03 Jun 10:00:12 10:02:38 16° 89° (E) 10:05:13 145.870
BUGSAT 1 03 Jun 10:03:07 10:05:01 13° 57° (ENE) 10:07:06 437.445
CANX-2 03 Jun 10:09:14 10:13:28 82° 284° (WNW) 10:17:41 2200.000
QB50P2 03 Jun 10:10:06 10:13:18 21° 63° (ENE) 10:16:37 145.880/145.840
ANTELSAT 03 Jun 10:10:40 10:15:00 42° 69° (ENE) 10:19:17 437.575/2403.000
CUTE 1.7 + AOD 2 03 Jun 10:11:30 10:15:44 85° 285° (WNW) 10:19:57 437.475
FUNcube-1 03 Jun 10:12:53 10:15:42 17° 89° (E) 10:18:36 145.935
DUCHIFAT 1 03 Jun 10:15:15 10:18:34 22° 63° (ENE) 10:21:56 145.980
POPSAT HIP 1 03 Jun 10:19:54 10:23:23 25° 64° (ENE) 10:26:58 437.405
RS-15 03 Jun 10:20:18 10:31:11 63° 322° (NW) 10:42:30 29.354- 29.394
SEEDS 03 Jun 10:21:14 10:25:27 81° 285° (WNW) 10:29:38 437.485
COMPASS 1 03 Jun 10:21:17 10:25:28 83° 103° (ESE) 10:29:38 437.405
UWE-3 03 Jun 10:24:17 10:28:01 28° 93° (E) 10:31:43 435.000/436.395/437.385
AAUSAT CUBESAT 2 03 Jun 10:26:22 10:30:32 82° 103° (ESE) 10:34:41 437.432
PCSat 03 Jun 10:27:31 10:30:04 13° 256° (WSW) 10:32:20 145.827
TIGRISAT 03 Jun 10:39:16 10:43:54 74° 74° (ENE) 10:48:27 435.000
DANDE 03 Jun 10:40:55 10:43:40 12° 72° (ENE) 10:47:01 436.750
UKube-1 03 Jun 10:41:51 10:44:25 16° 88° (E) 10:47:08 .
AISAT 03 Jun 10:48:08 10:49:17 11° 84° (E) 10:50:41 437.250
Oscar 11 03 Jun 10:49:42 10:54:01 68° 101° (ESE) 10:58:18 145.826/435.025
Cosmos 2504 03 Jun 10:50:15 10:58:06 56° 286° (WNW) 11:05:27 435.465 / 435.565
ZACube-1 03 Jun 10:56:09 11:00:18 46° 98° (E) 11:04:21 437.345
GOMX 1 03 Jun 10:57:45 11:02:13 28° 298° (WNW) 11:06:24 467.674
SO-50 03 Jun 11:01:17 11:05:48 35° 241° (WSW) 11:10:14 436.795
DX 1 03 Jun 11:02:01 11:05:42 26° 94° (E) 11:09:25 434.975-435.025
QB50P1 03 Jun 11:02:07 11:06:21 61° 72° (ENE) 11:10:37 145.935-145.965
UNISAT 6 03 Jun 11:03:25 11:08:03 65° 258° (WSW) 11:12:35 437.425
YUBILEINY 03 Jun 11:06:51 11:08:22 10° 324° (NW) 11:09:26 435.215
POLYITAN 1 03 Jun 11:08:40 11:12:58 72° 74° (ENE) 11:17:18 437.675
DOVE 4 03 Jun 11:19:11 11:23:15 25° 299° (WNW) 11:27:05 437.250
HUMSAT D 03 Jun 11:19:26 11:23:19 38° 97° (E) 11:27:09 437.325/437.525
CUBEBUG 1 03 Jun 11:23:33 11:25:41 13° 86° (E) 11:28:00 437.445
NANOSAT C BR1 03 Jun 11:30:20 11:34:38 72° 258° (WSW) 11:38:56 145.865
CUBEBUG 2 03 Jun 11:30:28 11:34:47 53° 289° (WNW) 11:38:55 437.445
HO-68 03 Jun 11:31:10 11:37:42 39° 301° (WNW) 11:44:09 435.675
CINEMA 3 03 Jun 11:34:09 11:38:13 30° 295° (WNW) 11:42:03 145.822/145.860
DELFI C3 03 Jun 11:34:11 11:38:08 55° 288° (WNW) 11:42:05 145.870
GONETS M04 03 Jun 11:34:41 11:41:16 25° 79° (E) 11:48:08
BUGSAT 1 03 Jun 11:35:39 11:39:53 89° 269° (W) 11:44:11 437.445
BRITE-PL 03 Jun 11:38:41 11:40:49 12° 310° (NW) 11:42:42 437.365/2234.400
QB50P2 03 Jun 11:44:44 11:48:55 50° 260° (W) 11:53:09 145.880/145.840
Oscar 19 03 Jun 11:47:07 11:49:23 13° 53° (NE) 11:51:51 437.125/150
CANX-2 03 Jun 11:47:14 11:48:46 12° 303° (WNW) 11:50:06 2200.000
VELOX 1 03 Jun 11:47:37 11:51:50 39° 97° (E) 11:56:02 145.980
ANTELSAT 03 Jun 11:48:00 11:51:57 26° 267° (W) 11:55:45 437.575/2403.000
FUNcube-1 03 Jun 11:48:15 11:52:27 54° 289° (WNW) 11:56:32 145.935
CUTE 1.7 + AOD 2 03 Jun 11:49:20 11:51:02 12° 302° (WNW) 11:52:33 437.475
DUCHIFAT 1 03 Jun 11:49:58 11:54:07 47° 261° (W) 11:58:17 145.980
CUSAT 1 03 Jun 11:53:29 12:01:02 45° 91° (E) 12:08:41 437.405
POPSAT HIP 1 03 Jun 11:55:01 11:59:06 41° 262° (W) 12:03:12 437.405
50 SAT 03 Jun 11:56:12 12:00:00 52° 100° (E) 12:03:45 437.505
COMPASS 1 03 Jun 11:58:32 12:00:35 13° 301° (WNW) 12:02:31 437.405
SEEDS 03 Jun 11:59:10 12:00:36 11° 303° (WNW) 12:01:51 437.485
UWE-3 03 Jun 12:00:41 12:04:37 34° 293° (WNW) 12:08:26 435.000/436.395/437.385
AAUSAT CUBESAT 2 03 Jun 12:03:31 12:05:37 13° 301° (WNW) 12:07:34 437.432
UKube-1 03 Jun 12:16:43 12:21:04 66° 288° (WNW) 12:25:22 .
DANDE 03 Jun 12:17:28 12:25:12 51° 92° (E) 12:33:23 436.750
TIGRISAT 03 Jun 12:18:27 12:21:12 15° 273° (W) 12:23:47 435.000
AISAT 03 Jun 12:22:09 12:26:41 85° 105° (ESE) 12:31:10 437.250
ESTCUBE 1 03 Jun 12:22:37 12:27:06 54° 100° (E) 12:31:34 437.505/2401.250
Oscar 11 03 Jun 12:26:58 12:29:46 17° 300° (WNW) 12:32:26 145.826/435.025
ZACube-1 03 Jun 12:33:04 12:36:25 22° 297° (WNW) 12:39:36 437.345
RS-15 03 Jun 12:36:00 12:46:12 38° 354° (N) 12:56:49 29.354- 29.394
DX 1 03 Jun 12:37:58 12:42:05 39° 292° (WNW) 12:46:10 434.975-435.025
QB50P1 03 Jun 12:39:52 12:42:40 16° 271° (W) 12:45:20 145.935-145.965
POLYITAN 1 03 Jun 12:47:03 12:49:26 14° 273° (W) 12:51:40 437.675
Cosmos 2504 03 Jun 12:49:42 12:53:33 14° 312° (NW) 12:56:55 435.465 / 435.565
HUMSAT D 03 Jun 12:55:30 12:58:55 24° 295° (WNW) 13:02:13 437.325/437.525
TISAT 1 03 Jun 12:56:32 13:00:00 24° 93° (E) 13:03:30 437.305
CUBEBUG 1 03 Jun 12:58:12 13:02:41 79° 286° (WNW) 13:07:07 437.445
SPROUT 03 Jun 13:05:14 13:09:20 40° 97° (E) 13:13:25 437.525
Cosmos 2499 03 Jun 13:05:26 13:09:11 15° 77° (ENE) 13:13:12 435.465 / 435.565
BUGSAT 1 03 Jun 13:14:58 13:16:06 11° 276° (W) 13:17:01 437.445
HO-68 03 Jun 13:21:25 13:23:38 11° 323° (NW) 13:25:34 435.675
Oscar 19 03 Jun 13:22:46 13:27:55 68° 71° (ENE) 13:33:06 437.125/150
VELOX 1 03 Jun 13:24:25 13:28:16 28° 296° (WNW) 13:32:03 145.980
GONETS M04 03 Jun 13:28:18 13:37:11 85° 281° (W) 13:46:05
50 SAT 03 Jun 13:31:47 13:34:22 17° 298° (WNW) 13:36:51 437.505
AO-7 03 Jun 13:34:08 13:39:32 20° 40° (NE) 13:45:11 29.400- 29.500
CUSAT 1 03 Jun 13:35:38 13:43:41 55° 290° (WNW) 13:51:37 437.405
Gurwin Techsat 1B 03 Jun 13:42:18 13:47:01 34° 64° (ENE) 13:51:48 435.225
O/OREOS (USA 219) 03 Jun 13:42:36 13:45:12 16° 101° (E) 13:47:57 437.305
ITAMSAT 1 03 Jun 13:55:26 14:00:19 44° 67° (ENE) 14:05:17 435.822/435.867
UKube-1 03 Jun 13:55:41 13:56:25 10° 306° (NW) 13:56:58 .
AISAT 03 Jun 14:00:07 14:02:41 15° 303° (WNW) 14:05:07 437.250
ESTCUBE 1 03 Jun 14:00:10 14:03:40 22° 298° (WNW) 14:07:03 437.505/2401.250
DANDE 03 Jun 14:00:35 14:08:35 50° 293° (WNW) 14:16:48 436.750
JAS-2 03 Jun 14:05:01 14:08:09 15° 55° (NE) 14:11:20 435.910
ITUPSAT 1 03 Jun 14:31:04 14:35:32 37° 97° (E) 14:40:00 437.325
TISAT 1 03 Jun 14:31:55 14:35:56 40° 292° (WNW) 14:39:54 437.305
BEESAT 03 Jun 14:33:18 14:37:48 40° 97° (E) 14:42:18 436.000
CUBEBUG 1 03 Jun 14:36:27 14:38:21 12° 304° (NW) 14:40:06 437.445
SPROUT 03 Jun 14:41:39 14:45:16 26° 295° (WNW) 14:48:48 437.525
SWISSCUBE 03 Jun 14:43:05 14:47:47 52° 100° (E) 14:52:29 437.505
RS-15 03 Jun 14:50:59 15:01:51 48° 26° (NNE) 15:13:18 29.354- 29.394
Cosmos 2499 03 Jun 14:53:32 15:01:15 73° 96° (E) 15:08:30 435.465 / 435.565
Oscar 19 03 Jun 15:04:01 15:07:49 20° 271° (W) 15:11:30 437.125/150
O/OREOS (USA 219) 03 Jun 15:19:38 15:24:07 71° 298° (WNW) 15:28:37 437.305
Gurwin Techsat 1B 03 Jun 15:21:55 15:26:56 41° 263° (W) 15:31:59 435.225
AO-7 03 Jun 15:22:45 15:30:51 61° 63° (ENE) 15:39:03 29.400- 29.500
CUSAT 1 03 Jun 15:23:12 15:28:21 17° 313° (NW) 15:33:01 437.405
GONETS M04 03 Jun 15:28:39 15:35:37 24° 306° (NW) 15:42:21
HORYU 2 03 Jun 15:32:56 15:37:18 56° 71° (ENE) 15:41:42 437.375
ITAMSAT 1 03 Jun 15:35:27 15:40:01 30° 266° (W) 15:44:34 435.822/435.867
KKS-1 03 Jun 15:36:18 15:40:21 32° 96° (E) 15:44:23 437.445
JAS-2 03 Jun 15:46:35 15:52:39 78° 74° (ENE) 15:58:08 435.910
DANDE 03 Jun 15:49:10 15:54:09 16° 316° (NW) 15:58:44 436.750
BEESAT 2 03 Jun 16:01:45 16:04:33 18° 114° (ESE) 16:07:29 435.950
ITUPSAT 1 03 Jun 16:09:06 16:13:22 32° 295° (WNW) 16:17:36 437.325
BEESAT 03 Jun 16:11:21 16:15:33 30° 296° (WNW) 16:19:41 436.000
STARS 03 Jun 16:19:37 16:23:59 54° 100° (E) 16:28:18 437.465
SWISSCUBE 03 Jun 16:21:30 16:25:22 24° 298° (WNW) 16:29:08 437.505
MOZHAYETS 4 03 Jun 16:30:31 16:32:29 13° 85° (E) 16:34:40
BEESAT 3 03 Jun 16:37:54 16:41:48 45° 123° (ESE) 16:45:47 437.485
AIST 2 03 Jun 16:46:02 16:48:36 16° 113° (ESE) 16:51:19 435.215
Cosmos 2499 03 Jun 16:48:46 16:55:09 27° 298° (WNW) 17:01:06 435.465 / 435.565
O/OREOS (USA 219) 03 Jun 17:02:02 17:04:27 14° 321° (NW) 17:06:45 437.305
RS-15 03 Jun 17:03:56 17:15:31 82° 233° (SW) 17:27:35 29.354- 29.394
YUBILEINY 03 Jun 17:06:50 17:14:45 38° 64° (ENE) 17:22:44 435.215
CUTE-I 03 Jun 17:10:52 17:15:00 24° 59° (ENE) 17:19:16 437.470
HORYU 2 03 Jun 17:11:06 17:14:20 19° 270° (W) 17:17:27 437.375
KKS-1 03 Jun 17:12:57 17:16:59 33° 294° (WNW) 17:20:56 437.445
AO-7 03 Jun 17:16:28 17:24:08 38° 264° (W) 17:31:45 29.400- 29.500
Cosmos 2491 03 Jun 17:22:57 17:28:13 18° 74° (ENE) 17:33:54 435.465 / 435.565
Cubesat XI-IV 03 Jun 17:33:19 17:38:04 35° 64° (ENE) 17:42:54 437.490
JAS-2 03 Jun 17:34:13 17:38:25 19° 271° (W) 17:42:09 435.910
BEESAT 2 03 Jun 17:38:09 17:42:15 65° 313° (NW) 17:46:24 435.950
STARS 03 Jun 17:56:46 18:00:06 21° 299° (WNW) 18:03:20 437.465
MOZHAYETS 4 03 Jun 18:05:49 18:10:26 85° 285° (WNW) 18:15:02
BEESAT 3 03 Jun 18:16:16 18:19:57 30° 323° (NW) 18:23:38 437.485
AIST 2 03 Jun 18:22:25 18:26:42 77° 310° (NW) 18:31:01 435.215
CUBESAT XI-V 03 Jun 18:31:53 18:35:17 20° 89° (E) 18:38:47 437.345
HO-68 03 Jun 18:32:06 18:36:24 18° 45° (NE) 18:40:54 435.675
Cosmos 2504 03 Jun 18:45:02 18:49:05 16° 51° (NE) 18:53:25 435.465 / 435.565
CUTE-I 03 Jun 18:49:26 18:54:43 63° 258° (WSW) 19:00:03 437.470
GOMX 1 03 Jun 18:55:22 18:58:40 17° 56° (NE) 19:02:10 467.674
YUBILEINY 03 Jun 19:03:36 19:12:08 61° 268° (W) 19:20:35 435.215
Cubesat XI-IV 03 Jun 19:13:07 19:18:08 41° 263° (W) 19:23:11 437.490
DOVE 4 03 Jun 19:14:54 19:18:01 16° 57° (ENE) 19:21:19 437.250
Cosmos 2491 03 Jun 19:14:55 19:23:42 76° 96° (E) 19:32:33 435.465 / 435.565
RS-15 03 Jun 19:17:25 19:26:33 27° 256° (WSW) 19:35:29 29.354- 29.394
BEESAT 2 03 Jun 19:18:18 19:21:07 17° 334° (NNW) 19:23:52 435.950
PRISM 03 Jun 19:27:30 19:30:59 25° 94° (E) 19:34:31 437.425
CINEMA 3 03 Jun 19:29:21 19:30:31 11° 54° (NE) 19:31:55 145.822/145.860
CANX-2 03 Jun 19:32:18 19:34:55 17° 61° (ENE) 19:37:39 2200.000
BRITE-PL 03 Jun 19:34:07 19:39:16 44° 67° (ENE) 19:44:41 437.365/2234.400
CUTE 1.7 + AOD 2 03 Jun 19:34:36 19:37:08 16° 61° (ENE) 19:39:47 437.475
COMPASS 1 03 Jun 19:43:34 19:45:31 13° 59° (ENE) 19:47:38 437.405
SEEDS 03 Jun 19:43:35 19:46:07 16° 61° (ENE) 19:48:46 437.485
AIST 1 03 Jun 19:44:10 19:48:02 35° 92° (E) 19:52:00
MOZHAYETS 4 03 Jun 19:44:42 19:47:01 14° 303° (WNW) 19:49:11
AAUSAT CUBESAT 2 03 Jun 19:48:22 19:50:13 13° 59° (ENE) 19:52:13 437.432
BEESAT 3 03 Jun 19:57:37 19:59:11 12° 345° (NNW) 20:00:41 437.485
STRAND 1 03 Jun 19:59:51 20:04:52 50° 99° (E) 20:09:53 437.568
AIST 2 03 Jun 20:02:48 20:05:58 19° 332° (NNW) 20:09:05 435.215
CUBESAT XI-V 03 Jun 20:08:29 20:13:08 58° 288° (WNW) 20:17:46 437.345
Oscar 11 03 Jun 20:15:18 20:17:14 13° 58° (ENE) 20:19:19 145.826/435.025
HO-68 03 Jun 20:15:52 20:22:55 63° 66° (ENE) 20:30:00 435.675
ZACube-1 03 Jun 20:23:58 20:24:44 10° 55° (NE) 20:25:43 437.345
